Hourly Data Report for February 17, 2018

MIRAMICHI RCS
NEW BRUNSWICK

47°00'34.000" N
65°27'54.000" W
33.00 m
8100989
71744
ACQ

Download Data

Hourly Data (February 2018)
Hourly Data Report for February 17, 2018
TIME
LST
Temp Definition
°C
Dew Point Definition
°C
Rel Hum Definition
%
Precip. Amount Definition
mm

Wind Dir Definition
10's deg

Wind Spd Definition
km/h
Visibility Definition
km
Stn Press Definition
kPa
Hmdx Definition


Wind Chill Definition


Weather Definition


00:00 -7.3 -17.0 46 0.0 31 18   100.26   -14 LegendNANA
01:00 -9.2 -19.6 42 0.0 29 22   100.49   -17 LegendNANA
02:00 -10.7 -22.1 39 0.0 29 25   100.72   -20 LegendNANA
03:00 -12.0 -22.4 42 0.0 30 15   100.94   -19 LegendNANA
04:00 -12.7 -22.0 46 0.0 30 20   101.13   -21 LegendNANA
05:00 -13.5 -21.6 50 0.0 30 13   101.25   -20 LegendNANA
06:00 -13.9 -22.4 48 0.0 30 14   101.45   -21 LegendNANA
07:00 -14.3 -23.6 45 0.0 30 14   101.62   -22 LegendNANA
08:00 -14.5 -24.0 44 0.0 30 10   101.86   -21 LegendNANA
09:00 -14.1 -23.9 43 0.0 31 11   101.99   -21 LegendNANA
10:00 -12.9 -23.1 42 0.0 30 19   102.12   -21 LegendNANA
11:00 -11.4 -22.1 41 0.0 28 19   102.17   -19 LegendNANA
12:00 -10.1 -21.2 40 0.0 28 18   102.22   -18 LegendNANA
13:00 -8.9 -20.8 38 0.0 28 16   102.12   -16 LegendNANA
14:00 -7.9 -20.2 37 0.0 24 19   102.16   -15 LegendNANA
15:00 -7.0 -19.7 35 0.0 24 19   102.16   -14 LegendNANA
16:00 -6.6 -19.6 35 0.0 27 12   102.05   -12 LegendNANA
17:00 -6.9 -19.3 37 0.0 26 10   102.10   -12 LegendNANA
18:00 -8.3 -17.7 47 0.0 22 7   102.18   -12 LegendNANA
19:00 -8.8 -18.2 47 0.0 23 8   102.17   -13 LegendNANA
20:00 -9.9 -17.8 52 0.0 21 7   102.13   -14 LegendNANA
21:00 -10.5 -18.2 53 0.0 21 6   102.20   -14 LegendNANA
22:00 -10.7 -17.6 57 0.0 21 2   102.12   -12 LegendNANA
23:00 -9.8 -17.7 52 0.0 18 11   101.97   -15 LegendNANA

Notes on Data Quality.

Legend

  • E = Estimated
  • M = Missing
  • NA = Not Available*
  • [empty] = Indicates an unobserved value
Date modified: